Location: Newark
(29.9790°N, 31.1340°E)
Time: 06:42:12
(UTC+00:00)

Transit 2A Rocket - Pass Details

Date: 18 January 2020
Orbit: 591 x 912 km, 66.7° (Epoch: 27 February)

Event Time Altitude Azimuth Distance (km) Brightness Sun altitude
Rises 14:25:52 0° 332° (NNW) 3,069 8.1 9.6°
Reaches altitude 10° 14:28:07 10° 330° (NNW) 2,196 7.4 9.2°
Maximum altitude 14:33:07 70° 247° (WSW) 813 5.7 8.2°
Drops below altitude 10° 14:38:35 10° 165° (SSE) 2,400 7.8 7.2°
Sets 14:41:08 0° 162° (SSE) 3,377 8.5 6.7°
